Cloud_Cover
100 100 100 100 98 74 8 5 5 5 0 0 0 0 0 12 6 0 0 0 0 0 0 0 0 0 0 0 0 0 0 0 0 86 56 17 100 6 0 0 0 0 0 0 0
100 100 63 6 21 95 18 14 5 0 0 0 2 0 4 0 0 0 0 0 0 0 0 0 0 0 0 0 0 0 0 0 9 91 100 24 10 100 1 0 0 0 0 0 0
100 100 100 100 58 5 5 90 5 24 75 5 1 6 10 0 0 0 0 0 0 0 0 0 0 0 0 0 0 0 0 0 13 100 84 38 77 11 53 45 94 89 100 71 0
100 100 20 5 5 5 12 18 65 98 81 11 28 26 2 0 0 0 0 0 0 0 0 0 0 0 0 0 0 0 0 0 0 65 2 0 99 10 4 86 100 100 100 100 15
100 100 100 21 5 11 84 100 100 100 88 71 30 26 0 0 0 0 0 0 0 0 0 0 0 0 0 0 0 0 0 0 0 2 3 0 1 31 17 91 100 100 100 100 14
100 99 94 98 97 99 100 100 79 5 16 24 36 3 1 0 0 0 0 0 0 0 0 0 0 0 0 0 0 0 0 0 3 0 1 0 0 6 6 95 100 100 100 55 0
100 100 100 100 100 100 100 100 21 5 13 53 45 3 0 0 0 0 0 0 0 0 0 0 0 0 0 0 0 0 0 0 0 0 0 0 0 0 0 5 1 97 2 0 0
100 100 100 100 100 100 98 97 100 100 100 100 45 7 0 0 0 0 0 0 0 0 0 0 0 0 0 0 0 0 0 0 0 0 0 0 0 0 0 5 28 62 100 49 92
100 100 100 81 61 100 100 100 100 91 26 18 0 0 0 0 0 0 0 0 0 0 0 0 0 0 0 0 0 0 0 0 0 0 0 0 0 0 4 2 29 100 100 100 9
100 100 100 100 100 100 100 100 40 85 20 0 0 0 0 0 0 0 0 0 0 0 0 0 0 0 0 0 0 2 0 0 0 0 0 0 0 0 0 0 5 100 100 45 99
100 99 100 100 100 100 100 100 2 0 0 0 0 0 0 0 0 0 0 0 0 0 0 0 0 0 0 0 0 0 0 0 2 0 1 4 1 0 0 1 0 0 0 73 1
100 100 100 100 100 61 14 5 0 0 0 0 0 0 0 0 0 0 0 0 0 0 0 0 0 0 0 0 0 0 0 0 0 2 0 0 0 0 2 5 0 0 1 78 38
100 96 5 3 7 2 0 0 0 0 0 0 0 0 0 0 0 0 0 0 0 0 0 0 12 0 0 0 0 0 0 0 0 0 0 0 0 23 23 7 2 0 0 19 70
5 5 16 5 2 0 0 0 0 0 0 0 0 0 0 0 0 0 0 0 0 0 0 0 0 0 0 0 0 0 0 0 0 0 0 0 0 3 2 4 13 0 0 0 26
5 5 0 0 0 0 0 0 0 0 57 0 0 0 0 0 0 0 0 0 0 0 1 1 2 0 0 0 0 0 1 0 0 0 0 2 0 0 100 16 0 0 0 0 0
0 0 0 0 0 0 0 0 0 0 0 0 0 0 0 0 0 0 0 0 0 0 0 1 96 1 0 12 1 0 0 0 0 0 0 6 3 61 24 100 99 100 91 93 22
0 0 1 0 0 0 0 0 0 0 0 0 0 0 3 4 3 0 0 0 2 43 48 3 25 60 1 0 0 1 0 0 4 18 16 90 94 5 94 82 14 78 6 94 100
0 12 0 0 0 0 0 0 0 0 0 0 0 0 0 0 1 0 3 2 7 0 9 99 99 89 100 33 68 100 88 79 5 99 78 89 100 100 100 100 12 5 6 4 10
0 0 0 0 0 0 0 0 0 0 0 0 0 0 0 0 0 0 4 2 55 29 0 0 34 32 95 76 0 2 98 58 24 4 4 69 55 100 100 100 36 6 4 4 24
0 0 0 0 0 0 0 0 0 0 0 0 0 0 0 73 0 0 3 19 3 0 0 1 9 85 63 21 0 0 0 93 100 22 1 1 72 100 88 92 45 90 100 100 100
0 0 0 5 5 5 0 5 0 4 1 0 0 0 0 2 0 1 5 46 0 0 0 0 0 0 7 6 58 7 43 78 52 2 26 78 94 34 4 96 95 98 44 76 80
0 5 0 0 5 5 5 5 0 2 2 0 0 0 1 3 5 0 0 0 0 0 0 0 0 0 0 1 3 0 2 100 100 8 27 21 98 100 100 100 44 96 99 5 6
4 4 0 5 4 5 30 1 5 0 0 0 72 100 96 5 0 0 0 4 5 0 1 0 0 0 0 4 4 0 0 0 0 0 0 0 92 100 90 97 100 100 84 37 6
5 4 5 3 5 4 5 4 1 0 0 5 100 100 36 5 1 2 5 6 99 6 5 0 0 0 0 1 1 0 7 100 100 28 0 0 3 97 100 100 100 91 42 100 51
5 5 5 5 5 1 5 5 1 5 0 28 58 10 5 3 4 5 83 78 91 77 5 0 2 0 0 0 0 0 1 55 100 100 0 0 0 0 4 1 6 17 57 98 61
5 5 81 5 5 5 5 0 5 3 5 39 5 5 5 5 9 5 39 100 57 6 5 0 0 0 0 0 0 0 0 0 1 83 28 9 0 2 0 3 0 0 0 0 1
50 13 49 6 5 17 14 5 11 97 15 89 6 5 5 53 100 100 100 100 5 5 4 5 5 5 0 0 0 0 5 0 0 0 0 2 48 49 9 1 0 0 0 0 0